Location: Caltech
(34.1382°N, 118.1253°W)
Time: 00:28:57
(UTC-07:00)

Daily predictions for brighter satellites

Satellite Brightness Start Highest point End
(mag) Time Altitude Azimuth Time Altitude Azimuth Time Altitude Azimuth
CZ-2C R/B 3.7 00:08:20 10° NNE 00:12:02 43° NNE 00:12:02 43° NNE
SeaSat 1 3.9 00:19:51 34° N 00:19:51 34° N 00:22:47 10° NNW
USA 267 4.1 00:17:00 10° NNE 00:23:09 46° NW 00:25:23 34° W
NOSS 3-1 (C) 4.1 00:26:35 10° NNW 00:34:21 69° ENE 00:34:45 68° ENE
SL-16 R/B 3.2 00:31:40 10° NNW 00:35:24 43° NNW 00:35:24 43° NNW
Lacrosse 5 3.6 00:40:43 28° NNE 00:40:43 28° NNE 00:43:16 10° NNE
USA 234 4.4 00:52:05 27° E 00:54:46 39° NE 01:00:43 10° NNW
Lacrosse 5 rocket 3.9 00:59:38 10° NNW 01:01:39 22° N 01:01:39 22° N
NOSS 3-1 (A) 4.0 00:58:51 10° NNW 01:06:43 82° ENE 01:06:48 82° ENE
COSMOS 2428 4.2 01:11:21 10° N 01:16:18 29° ENE 01:16:27 29° ENE
Cosmos 2360 Rocket 3.2 01:13:41 10° NNW 01:17:34 44° N 01:17:34 44° N
Cosmos 2322 Rocket 4.1 01:25:13 10° NW 01:27:23 21° WNW 01:27:23 21° WNW
Cosmos 1725 Rocket 4.4 01:38:18 10° N 01:44:08 55° ENE 01:44:08 55° ENE
Cosmos 2333 Rocket 4.0 01:44:19 10° N 01:48:58 25° ENE 01:50:57 21° E
Cosmos 2297 Rocket 3.8 01:56:55 25° E 01:56:55 25° E 02:00:44 10° NE
Cosmos 2219 Rocket 3.2 01:58:24 10° N 02:03:45 41° ENE 02:04:22 40° E
Cosmos 2237 Rocket 3.7 02:15:37 10° N 02:20:35 31° ENE 02:23:26 20° ESE
NPP 4.0 02:20:01 10° NNE 02:24:51 60° ENE 02:24:51 60° ENE
SL-16 R/B 4.0 02:26:03 16° ESE 02:30:03 32° ENE 02:35:25 10° N
Cosmos 2227 Rocket 2.3 02:33:48 73° ENE 02:33:48 73° ENE 02:39:05 10° NNE
USA 234 3.8 02:39:22 43° W 02:39:22 43° W 02:43:58 10° NW
Aureole 2 Rocket 4.4 02:37:05 10° N 02:40:29 34° ENE 02:40:29 34° ENE
Cosmos 1140 Rocket 3.6 02:41:38 69° N 02:41:38 69° N 02:46:15 10° NNE
Cosmos 614 Rocket 4.1 02:42:51 72° NE 02:42:51 72° NE 02:47:37 10° NNE
SL-08 R/B 3.6 02:45:31 70° NE 02:45:31 70° NE 02:50:13 10° N
Cosmos 2151 4.0 02:47:03 42° N 02:47:03 42° N 02:49:54 10° N
Cosmos 1850 Rocket 4.2 02:47:49 63° E 02:47:49 63° E 02:52:48 10° NNE
Meteor 2-10 4.1 02:43:55 10° N 02:48:27 69° NNW 02:48:27 69° NNW
Cosmos 1741 Rocket 4.1 02:53:15 69° ESE 02:53:20 70° ESE 02:58:38 10° NNE
Resurs 1-4 Rocket 2.7 02:48:30 10° NNE 02:53:39 49° E 02:54:22 46° SE
ADEOS 4.2 02:51:34 10° NNE 02:56:36 46° E 02:57:25 43° SE
ADEOS Rocket 3.6 02:49:15 10° NNE 02:56:49 72° ESE 02:59:39 43° S
AQUA 4.0 02:52:50 10° N 02:57:04 67° NNW 02:57:04 67° NNW
Cosmos 1900 4.3 02:58:02 77° NE 02:58:02 77° NE 03:02:42 10° NNE
ATLAS 2AS CENTAUR R/B 2.8 02:49:53 10° NNW 02:57:50 80° WSW 03:01:00 38° SSE
COSMOS 2428 4.1 02:55:26 10° NW 02:58:26 26° WNW 02:58:26 26° WNW
Cosmos 1151 Rocket 3.8 02:56:45 10° N 02:59:54 47° NNW 02:59:54 47° NNW
Cosmos 1455 3.5 02:58:41 10° NNE 03:02:16 35° E 03:02:19 35° E
Cosmos 2082 3.6 03:03:00 68° W 03:03:17 69° WNW 03:08:53 10° NNE
Meteor 1-11 4.3 03:07:22 58° W 03:07:35 59° W 03:13:15 10° N
CZ-2D R/B 2.2 03:03:23 10° NNE 03:08:35 68° ESE 03:09:26 57° SSE
CBERS-1 4.3 03:05:07 10° N 03:10:00 50° WNW 03:10:00 50° WNW
Meteor 1-27 4.2 03:06:48 10° NNW 03:12:38 77° W 03:13:36 61° SSW
ARIANE 5 R/B 2.4 03:13:13 10° NNE 03:18:19 79° ESE 03:19:11 61° S
Cosmos 1703 4.2 03:20:33 38° NW 03:20:33 38° NW 03:23:19 10° N
GPS 2-04 Rocket1 3.0 03:20:18 64° E 03:20:18 64° E 03:23:56 10° E
Cosmos 1626 3.4 03:24:32 32° NW 03:24:32 32° NW 03:26:56 10° N
IRS-1C 4.4 03:19:29 10° N 03:24:37 49° WNW 03:25:12 47° W
Cosmos 1072 Rocket 4.4 03:21:45 10° N 03:27:50 71° W 03:29:52 44° SSW
Cosmos 1666 Rocket 3.7 03:30:27 54° SSE 03:31:19 71° E 03:35:43 10° NNE
MOS 1 Rocket 4.4 03:26:20 10° NNE 03:31:21 46° E 03:34:17 24° SSE
Cosmos 1513 Rocket 4.4 03:26:50 10° N 03:33:16 84° W 03:36:35 31° S
Cosmos 2333 Rocket 2.7 03:28:04 10° NW 03:32:53 38° W 03:32:53 38° W
Cosmos 1891 Rocket 4.4 03:28:46 10° N 03:35:08 84° W 03:38:25 30° S
CZ-3B DEB 4.4 03:28:00 32° SW 03:36:19 89° SE 03:50:59 10° NE
Cosmos 2297 Rocket 3.0 03:38:44 32° W 03:39:57 36° WNW 03:45:08 10° N
USA 161 4.1 03:41:53 12° ENE 03:41:59 12° ENE 03:42:47 10° NE
UNKNOWN OBJECT B 2.9 03:39:09 10° NNE 03:43:10 74° E 03:44:01 52° S
Cosmos 1980 4.1 03:40:12 10° NW 03:45:29 41° WSW 03:46:06 39° WSW
Cosmos 2219 Rocket 3.6 03:43:03 10° NW 03:46:02 21° W 03:46:02 21° W
Cosmos 1805 Rocket 3.9 03:47:45 44° W 03:48:08 45° W 03:52:23 10° N
Cosmos 1464 Rocket 4.1 03:42:57 10° NNW 03:48:52 51° W 03:51:06 35° SW
ISS -2.9 03:47:18 10° NW 03:50:29 48° NE 03:53:39 10° ESE
ATLAS 3B CENTAUR R/B 3.2 03:36:00 10° W 03:50:51 57° SSW 03:56:11 10° ESE
BREEZE-M DEB 4.3 03:50:23 22° WNW 03:51:50 26° NW 03:54:12 10° NNE
COBE Rocket 4.5 03:48:17 10° N 03:52:32 36° WNW 03:53:17 34° W
Cosmos 1241 Rocket 4.4 03:50:55 10° NNW 03:57:20 78° WSW 04:03:34 10° SSE
DELTA 2 R/B (1) 4.0 03:55:02 23° W 03:58:27 59° NNW 04:03:56 10° ENE
Cosmos 2208 Rocket 4.0 03:54:00 10° NNW 03:59:06 58° WSW 04:02:13 23° S
USA 102 3.5 03:55:57 10° NNE 03:59:04 65° N 03:59:04 65° N
Cosmos 2237 Rocket 2.9 03:59:42 10° NW 04:04:30 29° WSW 04:05:11 29° WSW
SL-16 R/B 2.1 03:59:18 10° NNW 04:05:00 79° WSW 04:10:38 10° SSE
Okean O Rocket 3.5 04:01:29 10° NE 04:05:10 27° E 04:08:51 10° SSE
Lacrosse 4 Rocket 1.6 04:05:12 38° WSW 04:06:22 52° WNW 04:10:28 10° NNE
Cosmos 2227 4.3 04:03:29 24° SSW 04:07:05 80° ESE 04:12:52 10° NNE
Cosmos 468 Rocket 4.2 04:02:01 10° NNW 04:07:12 72° ENE 04:12:19 10° SSE
Cosmos 1634 Rocket 4.5 04:02:30 10° N 04:08:38 60° E 04:14:41 10° SSE
ATLAS 5 CENTAUR R/B 3.3 04:07:16 12° SSE 04:10:47 28° ESE 04:14:55 10° NE
SL-16 R/B 3.2 04:11:08 25° SW 04:13:31 34° W 04:19:03 10° NW
BREEZE-M DEB (TANK) 4.4 04:01:47 10° NW 04:15:23 44° WSW 04:19:31 10° SSE
Cosmos 1470 Rocket 3.4 04:12:59 21° S 04:15:47 90° W 04:20:06 10° N
Cosmos 1633 Rocket 3.6 04:15:39 29° WSW 04:17:08 39° W 04:21:14 10° N
OAO 3 Copernicus 4.3 04:13:45 17° W 04:17:39 62° SSW 04:22:39 10° ESE
Cosmos 2227 Rocket 4.2 04:15:37 11° W 04:18:05 14° NW 04:20:50 10° NNW
MOZ.5/SAFIR/RUBIN 5/SL-8 3.8 04:15:33 15° S 04:19:21 59° W 04:24:05 10° NNW
Sich 1 4.0 04:18:35 26° WSW 04:19:51 30° WNW 04:23:43 10° NNW
CZ-2D R/B 4.1 04:21:31 10° N 04:25:16 37° WNW 04:27:08 24° WSW
Cosmos 1400 Rocket 3.0 04:23:59 12° S 04:27:28 67° E 04:31:22 10° NNE
Cosmos 1814 Rocket 4.1 04:24:11 10° NNW 04:29:33 83° ENE 04:34:55 10° SSE
Cosmos 1763 Rocket 4.0 04:25:56 10° N 04:31:08 63° ENE 04:36:13 10° SSE
Cosmos 1892 3.7 04:28:20 10° SSE 04:31:56 45° E 04:35:35 10° NNE
Resurs 1-4 Rocket 3.8 04:29:32 10° NNW 04:33:02 18° WNW 04:35:28 14° W
Cosmos 1455 4.4 04:36:24 10° WNW 04:37:17 11° W 04:37:17 11° W
Cosmos 2263 Rocket 3.0 04:35:01 10° S 04:40:19 48° ESE 04:45:39 10° NNE
CZ-3 R/B 3.7 03:57:45 10° W 04:41:01 69° SSW 04:49:58 10° ESE
PAYLOAD B 4.5 04:37:02 10° NNE 04:42:32 70° ESE 04:47:59 10° S
ADEOS II 2.1 04:38:07 10° NNE 04:43:25 85° ESE 04:48:40 10° SSW
ATLAS 2AS CENTAUR R/B 4.4 04:44:56 10° W 04:47:27 12° W 04:48:17 12° WSW
Cosmos 1354 Rocket 4.1 04:42:14 10° SSW 04:47:32 81° ESE 04:52:49 10° NNE
Cosmos 220 Rocket 4.4 04:44:11 15° SW 04:47:41 50° WNW 04:52:01 10° N
CZ-2D R/B 4.1 04:45:49 10° NW 04:48:02 13° WNW 04:50:15 10° W
CZ-4B R/B 3.0 04:44:28 10° N 04:48:52 83° WNW 04:53:02 10° SSW
NOSS 3-4 (A) 3.9 04:42:09 10° NW 04:49:18 70° WSW 04:56:52 10° SSE
NOSS 3-4 (C) 3.8 04:42:15 10° NW 04:49:24 71° WSW 04:56:59 10° SSE
In-Cosmos 22 Rocket 4.2 04:45:00 10° SSW 04:50:14 59° W 04:55:30 10° N
PSLV R/B 3.6 04:46:17 10° NNE 04:50:31 80° ESE 04:54:41 10° S
OAO 3 Rocket 3.6 04:46:45 15° SW 04:50:42 54° SSE 04:55:30 10° E
Cosmos 371 Rocket 3.2 04:46:19 10° NNW 04:51:07 76° WSW 04:55:53 10° S
Meteor 1-26 Rocket 4.4 04:46:49 10° N 04:52:34 81° E 04:58:10 10° S
Landsat 4 3.7 04:49:10 10° S 04:52:54 64° WSW 04:56:42 10° NNW
IRS-1C Rocket 4.2 04:50:29 10° NNE 04:55:48 84° ESE 05:01:05 10° SSW
USA 215 3.8 04:49:52 10° NE 04:56:15 55° SE 05:02:36 10° SSW
Meteosat 1 Rocket2 3.7 04:56:21 13° SW 04:59:26 30° S 05:02:40 10° ESE
GPS 2-04 Rocket1 3.3 04:55:32 10° W 04:59:26 40° SSW 05:03:28 10° SE
Meteor 2-10 Rocket 3.6 05:00:42 10° NNW 05:05:33 53° W 05:10:28 10° S
Abrixas rocket 3.9 05:05:21 10° SSW 05:08:11 27° SE 05:11:03 10° ENE
Cosmos 1867 3.6 05:02:48 10° SSW 05:08:14 88° WNW 05:13:44 10° NNE
BREEZE-M R/B 4.2 05:09:33 10° WSW 05:15:25 34° NW 05:18:39 10° NNE
Cosmos 1825 3.8 05:12:35 10° SSE 05:16:05 37° E 05:19:37 10° NNE
Cosmos 1315 Rocket 3.2 05:16:43 10° SSW 05:20:39 48° W 05:24:34 10° N
Cosmos 540 Rocket 4.0 05:17:08 10° N 05:22:18 67° ENE 05:27:25 10° SSE
